FW8996 Weather Reports


time (UTC)temp
C
wind
direction
speed
KPH
gust
KPH
rain 1hr
cm
rain 24hr
cm
rain mn
cm
humidity
%
barometer
mb
20260507212022 14 158 1.6 9.7 0.00 0.00 1.55 66 1005.8
20260507211516 14 203 3.2 14.5 0.00 0.00 1.55 65 1005.6
20260507211004 14 90 0.0 17.7 0.00 0.00 1.55 65 1005.5
20260507210453 15 158 6.4 22.5 0.00 0.00 1.55 63 1005.6
20260507205941 15 45 6.4 22.5 0.00 0.00 1.55 64 1005.6
20260507205431 15 248 3.2 12.9 0.00 0.00 1.55 66 1005.4
20260507204414 15 23 3.2 17.7 0.00 0.00 1.55 65 1005.9
20260507203902 15 225 1.6 11.3 0.00 0.00 1.55 65 1005.7
20260507203352 15 158 3.2 12.9 0.00 0.00 1.55 64 1005.5
20260507202837 15 248 3.2 12.9 0.00 0.00 1.55 64 1005.7
20260507202334 15 225 0.0 14.5 0.00 0.00 1.55 65 1005.8
20260507201820 15 180 0.0 14.5 0.00 0.00 1.55 64 1005.8
20260507201312 15 270 3.2 14.5 0.00 0.00 1.55 63 1005.6
20260507200802 15 293 3.2 17.7 0.00 0.00 1.55 63 1005.6
20260507200252 15 180 6.4 17.7 0.00 0.00 1.55 62 1005.7
20260507195737 15 225 4.8 17.7 0.00 0.00 1.55 61 1005.6
20260507195236 15 180 3.2 17.7 0.00 0.00 1.55 63 1005.6
20260507193701 15 270 9.7 22.5 0.00 0.00 1.55 61 1005.3
20260507193155 15 225 11.3 22.5 0.00 0.00 1.55 60 1005.0
20260507192643 16 270 6.4 25.7 0.00 0.00 1.55 60 1005.1
20260507192131 16 248 6.4 27.4 0.00 0.00 1.55 59 1004.6
20260507191616 16 225 12.9 27.4 0.00 0.00 1.55 59 1004.5
20260507191105 16 225 9.7 29.0 0.00 0.00 1.55 59 1004.4
20260507190601 16 248 22.5 29.0 0.00 0.00 1.55 57 1004.1
20260507190050 16 293 9.7 27.4 0.00 0.00 1.55 59 1003.6
20260507185026 16 225 11.3 25.7 0.00 0.00 1.55 58 1003.9
20260507184518 16 135 12.9 25.7 0.00 0.00 1.55 59 1003.5
20260507184009 16 248 8.0 22.5 0.00 0.00 1.55 60 1003.1
20260507182950 16 270 11.3 22.5 0.00 0.00 1.55 57 1004.1
20260507182435 16 248 8.0 25.7 0.00 0.00 1.55 59 1004.3
20260507181924 16 315 8.0 25.7 0.00 0.00 1.55 60 1004.2
20260507181416 16 270 4.8 12.9 0.00 0.00 1.55 61 1004.5
20260507180908 16 293 4.8 14.5 0.00 0.00 1.55 60 1004.6
20260507180400 16 248 6.4 14.5 0.00 0.00 1.55 63 1004.8
20260507175336 15 225 1.6 6.4 0.00 0.00 1.55 65 1005.2
20260507174823 15 248 0.0 17.7 0.00 0.00 1.55 64 1005.6
20260507173809 14 225 1.6 9.7 0.00 0.00 1.55 66 1005.8
20260507173256 14 248 1.6 22.5 0.00 0.00 1.55 65 1006.0
20260507172748 14 293 6.4 22.5 0.00 0.00 1.55 65 1006.2
20260507172237 14 270 1.6 22.5 0.00 0.00 1.55 66 1006.4
20260507171725 14 293 8.0 27.4 0.00 0.00 1.55 65 1006.6
20260507171215 14 270 4.8 27.4 0.00 0.00 1.55 66 1006.6
20260507170704 14 293 3.2 25.7 0.00 0.00 1.55 67 1007.0
20260507170157 14 270 9.7 29.0 0.00 0.00 1.55 67 1007.1
20260507165137 14 293 14.5 27.4 0.00 0.00 1.55 68 1007.2
20260507164627 14 293 16.1 27.4 0.00 0.00 1.55 67 1006.8
20260507163059 14 248 6.4 33.8 0.00 0.00 1.55 68 1006.5
20260507162547 14 270 14.5 33.8 0.00 0.00 1.55 68 1006.6
20260507162031 14 270 14.5 32.2 0.00 0.00 1.55 69 1006.5
20260507161526 14 270 4.8 24.1 0.00 0.00 1.55 70 1006.1
20260507161019 13 248 6.4 24.1 0.00 0.00 1.55 69 1006.1
20260507160506 14 270 3.2 24.1 0.00 0.00 1.55 70 1005.9
20260507155952 14 180 4.8 12.9 0.00 0.00 1.55 70 1005.7
20260507151551 13 293 0.0 0.0 0.00 0.00 1.55 76 1007.5
20260507151038 13 293 0.0 11.3 0.00 0.00 1.55 75 1007.6
20260507145505 13 270 1.6 14.5 0.00 0.00 1.55 72 1008.3
20260507144958 13 270 0.0 14.5 0.00 0.00 1.55 70 1007.9
20260507144454 13 225 1.6 14.5 0.00 0.00 1.55 72 1007.4
20260507143427 13 113 0.0 6.4 0.00 0.00 1.55 74 1006.6
20260507142920 13 270 1.6 6.4 0.00 0.00 1.55 74 1006.9
20260507142413 13 248 0.0 6.4 0.00 0.00 1.55 75 1006.5
20260507141859 13 248 0.0 6.4 0.00 0.00 1.55 74 1006.5
20260507141349 13 203 0.0 12.9 0.00 0.00 1.55 73 1006.5
20260507140844 13 248 1.6 12.9 0.00 0.00 1.55 73 1006.8
20260507140330 14 248 0.0 9.7 0.00 0.00 1.55 75 1006.9
20260507135815 14 225 0.0 9.7 0.00 0.00 1.55 75 1006.3
20260507135310 13 338 3.2 9.7 0.00 0.00 1.55 74 1006.1
20260507134801 13 293 0.0 6.4 0.00 0.00 1.55 76 1006.3
20260507134247 13 158 0.0 6.4 0.00 0.00 1.55 76 1005.8
20260507133738 13 338 0.0 3.2 0.00 0.00 1.55 76 1005.9
20260507132716 13 158 0.0 6.4 0.00 0.00 1.55 75 1006.0
20260507131143 13 248 0.0 9.7 0.00 0.00 1.55 76 1006.6
20260507130636 13 248 1.6 9.7 0.00 0.00 1.55 75 1006.8
20260507130128 14 270 0.0 6.4 0.00 0.00 1.55 75 1006.8
20260507125615 14 203 0.0 9.7 0.00 0.00 1.55 75 1007.0
20260507125108 14 158 0.0 9.7 0.00 0.00 1.55 76 1007.1
20260507124558 14 180 1.6 6.4 0.00 0.00 1.55 76 1006.7
20260507124043 14 203 0.0 0.0 0.00 0.00 1.55 78 1006.0
20260507123540 14 270 0.0 3.2 0.00 0.00 1.55 79 1006.2
20260507123027 14 203 0.0 3.2 0.00 0.00 1.55 80 1005.8
20260507122518 14 113 0.0 3.2 0.00 0.00 1.55 79 1005.9
20260507122002 14 248 0.0 11.3 0.00 0.00 1.55 78 1005.7
20260507121457 14 225 0.0 11.3 0.00 0.00 1.55 79 1005.3
20260507120944 14 225 0.0 12.9 0.00 0.00 1.55 79 1004.9
20260507120437 14 180 1.6 17.7 0.00 0.00 1.55 78 1004.6
20260507115927 14 180 3.2 17.7 0.00 0.00 1.55 77 1004.3
20260507114906 14 158 1.6 17.7 0.00 0.00 1.55 77 1005.5
20260507113846 14 135 3.2 11.3 0.00 0.00 1.55 78 1004.5
20260507113336 14 135 1.6 17.7 0.00 0.00 1.55 78 1004.3
20260507112825 15 203 1.6 17.7 0.00 0.00 1.55 78 1004.1
20260507112315 15 225 3.2 17.7 0.00 0.00 1.55 76 1004.2
20260507111805 15 225 6.4 17.7 0.00 0.00 1.55 77 1003.9
20260507111252 15 180 3.2 25.7 0.00 0.00 1.55 76 1003.9
20260507110746 15 203 12.9 29.0 0.00 0.00 1.55 75 1003.1
20260507105211 15 203 12.9 22.5 0.00 0.00 1.55 77 1001.7
20260507034953 20 248 3.2 12.9 1.35 1.35 1.35 93 999.7
20260507034506 20 270 0.0 12.9 1.19 1.19 1.19 93 999.4
20260507033938 17 225 0.0 27.4 1.02 1.02 1.02 92 999.8
20260507033424 18 203 11.3 27.4 0.33 0.33 0.33 90 1000.7
20260507032919 22 180 0.0 6.4 0.10 0.10 0.10 91 1000.9
20260507032408 23 315 0.0 6.4 0.03 0.03 0.03 90 999.9
20260507031900 23 338 0.0 3.2 0.00 0.00 0.00 91 999.7
20260507031349 22 23 0.0 0.0 0.00 0.00 0.00 90 999.7
20260507030840 22 45 0.0 0.0 0.00 0.00 0.00 90 999.6
20260507030332 22 45 0.0 0.0 0.00 0.00 0.00 90 999.8
20260507025819 22 23 0.0 0.0 0.00 0.00 0.00 90 1000.1
20260507025312 23 90 0.0 0.0 0.00 0.00 0.00 90 1000.3
20260507024759 23 23 0.0 0.0 0.00 0.00 0.00 90 1000.8
20260507024251 23 23 0.0 0.0 0.00 0.00 0.00 89 1000.4
20260507023741 23 23 0.0 0.0 0.00 0.00 0.00 89 1000.3
20260507023229 23 23 0.0 0.0 0.00 0.00 0.00 88 1000.7
20260507022724 23 293 0.0 3.2 0.00 0.00 0.00 87 1001.1
20260507022206 23 270 0.0 3.2 0.00 0.00 0.00 87 1001.9
20260507021658 23 293 0.0 3.2 0.00 0.00 0.00 87 1001.6
20260507021148 23 315 0.0 0.0 0.00 0.00 0.00 87 1001.8
20260507020641 23 315 0.0 0.0 0.00 0.00 0.00 88 1001.5
20260507020132 23 293 0.0 0.0 0.00 0.00 0.00 88 1001.6
20260507015618 23 315 0.0 0.0 0.00 0.00 0.00 88 1001.8
20260507015111 23 338 0.0 0.0 0.00 0.00 0.00 87 1001.8
20260507014600 23 23 0.0 0.0 0.00 0.00 0.00 87 1001.6
20260507014050 23 338 0.0 0.0 0.00 0.00 0.00 87 1002.2
20260507013537 24 338 0.0 0.0 0.00 0.00 0.00 87 1001.9
20260507012520 23 0 0.0 0.0 0.00 0.00 0.00 87 1001.5
20260507011459 24 0 0.0 0.0 0.00 0.00 0.00 86 1001.8
20260507010951 24 0 0.0 0.0 0.00 0.00 0.00 85 1001.9
20260507010440 25 23 0.0 3.2 0.00 0.00 0.00 84 1001.9
20260507005929 25 23 0.0 3.2 0.00 0.00 0.00 85 1002.1
20260507004909 24 45 0.0 0.0 0.00 0.00 0.00 86 1002.2
20260507004400 24 68 0.0 3.2 0.00 0.00 0.00 86 1002.3
20260507003336 24 45 0.0 6.4 0.00 0.00 0.00 85 1002.4
20260507002828 24 45 0.0 6.4 0.00 0.00 0.00 85 1002.3
20260507002318 24 45 0.0 0.0 0.00 0.00 0.00 85 1002.6
20260507001809 24 45 0.0 0.0 0.00 0.00 0.00 85 1002.6
20260507001258 24 180 0.0 0.0 0.00 0.00 0.00 86 1002.9
20260507000748 24 203 0.0 0.0 0.00 0.00 0.00 86 1002.9
20260507000238 24 180 0.0 0.0 0.00 0.00 0.00 86 1003.0
20260506235728 24 203 0.0 0.0 0.00 0.00 0.00 85 1002.7
20260506235218 24 225 0.0 0.0 0.00 0.00 0.00 85 1002.5
20260506233645 25 293 0.0 0.0 0.00 0.00 0.00 83 1002.1
20260506233135 25 293 0.0 0.0 0.00 0.00 0.00 82 1002.3
20260506232627 25 23 0.0 0.0 0.00 0.00 0.00 82 1002.1
20260506231057 25 23 0.0 3.2 0.00 0.00 0.00 82 1001.7
20260506230548 25 23 0.0 0.0 0.00 0.00 0.00 82 1001.8
20260506230042 25 23 0.0 0.0 0.00 0.00 0.00 81 1001.5
20260506225528 25 23 0.0 6.4 0.00 0.00 0.00 81 1001.8
20260506225020 25 23 0.0 6.4 0.00 0.00 0.00 81 1001.7
20260506224511 25 45 0.0 6.4 0.00 0.00 0.00 80 1001.5
20260506224001 26 23 1.6 11.3 0.00 0.00 0.00 80 1001.8
20260506223450 26 23 1.6 11.3 0.00 0.00 0.00 80 1001.7
20260506222940 26 45 0.0 6.4 0.00 0.00 0.00 79 1001.4
20260506222427 26 0 0.0 6.4 0.00 0.00 0.00 78 1001.6
20260506221919 26 23 1.6 9.7 0.00 0.00 0.00 78 1001.5
20260506221410 26 338 1.6 12.9 0.00 0.00 0.00 78 1001.2
20260506220350 26 23 6.4 14.5 0.00 0.00 0.00 77 1001.1
20260506215329 26 45 3.2 17.7 0.00 0.00 0.00 77 1000.9
20260506214815 27 23 3.2 20.9 0.00 0.00 0.00 76 1001.1
20260506214304 27 45 8.0 20.9 0.00 0.00 0.00 76 1001.0
20260506213756 27 23 3.2 17.7 0.00 0.00 0.00 76 1001.0
20260506213246 27 45 3.2 17.7 0.00 0.00 0.00 75 1000.8
20260506212745 27 45 6.4 17.7 0.00 0.00 0.00 75 1001.0